I0ABU-3 Weather Reports


Display with metric or nautical units.
time (UTC)temp
F
wind
direction
speed
MPH
gust
MPH
rain 1hr
in
rain 24hr
in
rain mn
in
humidity
%
barometer
mb
20260504021521 54 27 4.0 6.0 0.00 0.00 0.00 80 1017.2
20260504020043 54 21 2.0 5.0 0.00 0.00 0.00 84 1017.3
20260504014513 54 21 2.0 3.0 0.00 0.00 0.00 85 1017.2
20260504013027 54 21 3.0 6.0 0.00 0.00 0.00 87 1017.2
20260504011555 53 21 4.0 5.0 0.00 0.00 0.00 87 1017.2
20260504010015 52 19 3.0 5.0 0.00 0.00 0.00 86 1017.1
20260504004546 53 17 4.0 6.0 0.00 0.00 0.00 84 1017.1
20260504003045 53 18 3.0 5.0 0.00 0.00 0.00 84 1017.1
20260504001506 53 35 4.0 8.0 0.00 0.00 0.00 83 1017.2
20260504000029 53 32 3.0 6.0 0.00 0.00 0.00 85 1017.3
20260503234554 53 22 3.0 5.0 0.00 0.00 0.00 85 1017.5
20260503233101 53 26 3.0 6.0 0.00 0.00 0.00 85 1017.5
20260503231523 53 13 4.0 6.0 0.00 0.00 0.00 84 1017.7
20260503230044 54 24 3.0 5.0 0.00 0.00 0.00 84 1017.8
20260503224606 54 26 2.0 5.0 0.00 0.00 0.00 84 1017.9
20260503223024 55 31 3.0 6.0 0.00 0.00 0.00 84 1017.9
20260503221552 55 17 2.0 5.0 0.00 0.00 0.00 84 1017.9
20260503220007 55 331 2.0 4.0 0.00 0.00 0.00 84 1017.9
20260503214533 55 26 1.0 4.0 0.00 0.00 0.00 84 1017.9
20260503213056 56 36 3.0 6.0 0.00 0.00 0.00 83 1017.9
20260503211550 56 360 0.0 8.0 0.00 0.00 0.00 85 1017.9
20260503210007 55 16 0.0 4.0 0.00 0.00 0.00 85 1018.0
20260503204546 55 16 2.0 4.0 0.00 0.00 0.00 84 1017.8
20260503203040 56 19 3.0 4.0 0.00 0.00 0.00 84 1017.7
20260503201552 56 19 1.0 3.0 0.00 0.00 0.00 83 1017.7
20260503200101 57 29 2.0 4.0 0.00 0.00 0.00 82 1017.7
20260503194523 57 34 0.0 1.0 0.00 0.00 0.00 80 1017.5
20260503193051 58 34 0.0 4.0 0.00 0.00 0.00 79 1017.5
20260503191505 58 331 0.0 3.0 0.00 0.00 0.00 79 1017.2
20260503190029 58 198 0.0 9.0 0.00 0.00 0.00 78 1017.3
20260503184559 59 259 2.0 11.0 0.00 0.00 0.00 77 1017.3
20260503183115 60 184 5.0 8.0 0.00 0.00 0.00 74 1017.2
20260503181522 60 250 2.0 10.0 0.00 0.00 0.00 72 1017.1
20260503180048 61 238 4.0 10.0 0.00 0.00 0.00 69 1017.0
20260503174558 63 227 3.0 7.0 0.00 0.00 0.00 64 1016.9
20260503173121 63 228 4.0 8.0 0.00 0.00 0.00 64 1016.6
20260503171525 64 166 4.0 10.0 0.00 0.00 0.00 63 1016.3
20260503120116 69 300 9.0 16.0 0.00 0.00 0.00 47 1018.0
20260503090104 64 257 7.0 12.0 0.00 0.00 0.00 55 1019.0
20260503081556 60 177 5.0 9.0 0.00 0.00 0.00 61 1019.1
20260503071510 59 217 2.0 6.0 0.00 0.00 0.00 60 1019.2
20260503054509 55 33 3.0 5.0 0.00 0.00 0.00 65 1019.0
20260503053036 54 32 2.0 5.0 0.00 0.00 0.00 64 1019.0
20260503051559 54 65 1.0 3.0 0.00 0.00 0.00 63 1019.0
20260503050015 53 360 2.0 6.0 0.00 0.00 0.00 61 1019.1
20260503044542 54 38 4.0 8.0 0.00 0.00 0.00 59 1018.8
20260503043104 54 38 5.0 10.0 0.00 0.00 0.00 60 1018.9
20260503041526 52 318 0.0 3.0 0.00 0.00 0.00 65 1018.9
20260503040044 52 34 1.0 3.0 0.00 0.00 0.00 68 1018.9
20260503034615 53 34 1.0 4.0 0.00 0.00 0.00 66 1018.7
20260503033018 53 33 0.0 0.0 0.00 0.00 0.00 65 1018.6
20260503031545 53 33 0.0 1.0 0.00 0.00 0.00 64 1018.7
20260503030003 53 33 0.0 2.0 0.00 0.00 0.00 58 1018.7
20260503024528 54 33 1.0 5.0 0.00 0.00 0.00 56 1018.8
20260503023037 54 34 4.0 6.0 0.00 0.00 0.00 58 1018.8